• In Lithuania
  • List of Countries
  • For 7 days
  • Water Temperature
  • Satellite Maps
  • Weather Map
  • Weather Widgets
  • user-avatar
    Login

    Hourly Weather Salta

    Today, 19 October, Friday

    Time Temperature Precipitation Wind Pressure Humidity
    00:00 +23°C° 0.4 mm 1 mps 652 mmHg 78%
    01:00 +23°C° 0.4 mm 2 mps 652 mmHg 80%
    02:00 +23°C° 0.4 mm 2 mps 652 mmHg 81%
    03:00 +21°C° 0.5 mm 2 mps 652 mmHg 81%
    04:00 +21°C° 0.5 mm 2 mps 652 mmHg 82%
    05:00 +22°C° 0.5 mm 1 mps 652 mmHg 82%
    06:00 +23°C° 0.2 mm 2 mps 653 mmHg 78%
    07:00 +23°C° 0.2 mm 2 mps 653 mmHg 74%
    08:00 +24°C° 0.2 mm 3 mps 654 mmHg 70%
    09:00 +24°C° 0.5 mm 3 mps 654 mmHg 70%
    10:00 +24°C° 0.5 mm 3 mps 654 mmHg 70%
    11:00 +24°C° 0.5 mm 3 mps 654 mmHg 69%
    12:00 +24°C° 0.3 mm 3 mps 654 mmHg 70%
    13:00 +24°C° 0.3 mm 2 mps 653 mmHg 70%
    14:00 +24°C° 0.3 mm 2 mps 653 mmHg 70%
    15:00 +24°C° 0.3 mm 2 mps 652 mmHg 72%
    16:00 +23°C° 0.3 mm 2 mps 652 mmHg 74%
    17:00 +23°C° 0.3 mm 2 mps 651 mmHg 75%
    18:00 +21°C° 0.1 mm 2 mps 651 mmHg 78%
    19:00 +21°C° 0.1 mm 1 mps 652 mmHg 80%
    20:00 +21°C° 0.1 mm 1 mps 652 mmHg 83%
    21:00 +20°C° 0 mm 1 mps 652 mmHg 83%
    22:00 +20°C° 0 mm 1 mps 653 mmHg 83%
    23:00 +20°C° 0 mm 1 mps 653 mmHg 83%

    Tomorrow, 20 October, Saturday

    Time Temperature Precipitation Wind Pressure Humidity
    00:00 +20°C° 0 mm 1 mps 652 mmHg 84%
    01:00 +19°C° 0 mm 1 mps 652 mmHg 84%
    02:00 +19°C° 0 mm 1 mps 651 mmHg 84%
    03:00 +19°C° 0 mm 1 mps 651 mmHg 85%
    04:00 +19°C° 0 mm 1 mps 651 mmHg 86%
    05:00 +19°C° 0 mm 1 mps 651 mmHg 87%
    06:00 +20°C° 0 mm 1 mps 652 mmHg 80%
    07:00 +22°C° 0 mm 1 mps 652 mmHg 74%
    08:00 +23°C° 0 mm 1 mps 653 mmHg 67%
    09:00 +24°C° 0 mm 2 mps 653 mmHg 63%
    10:00 +26°C° 0 mm 2 mps 653 mmHg 58%
    11:00 +27°C° 0 mm 2 mps 653 mmHg 53%
    12:00 +28°C° 0 mm 2 mps 652 mmHg 53%
    13:00 +28°C° 0 mm 2 mps 651 mmHg 53%
    14:00 +28°C° 0 mm 2 mps 650 mmHg 53%
    15:00 +27°C° 0.1 mm 2 mps 650 mmHg 57%
    16:00 +27°C° 0.1 mm 2 mps 649 mmHg 60%
    17:00 +26°C° 0.1 mm 2 mps 649 mmHg 63%
    18:00 +25°C° 0.1 mm 2 mps 649 mmHg 68%
    19:00 +24°C° 0.1 mm 2 mps 650 mmHg 73%
    20:00 +23°C° 0.1 mm 1 mps 650 mmHg 78%
    21:00 +23°C° 0.1 mm 1 mps 651 mmHg 80%
    22:00 +22°C° 0.1 mm 1 mps 651 mmHg 81%
    23:00 +22°C° 0.1 mm 1 mps 651 mmHg 82%

    Day after tomorrow, 21 October, Sunday

    Time Temperature Precipitation Wind Pressure Humidity
    00:00 +22°C° 0 mm 1 mps 651 mmHg 84%
    01:00 +21°C° 0 mm 1 mps 650 mmHg 85%
    02:00 +21°C° 0 mm 1 mps 650 mmHg 87%
    03:00 +21°C° 0 mm 1 mps 650 mmHg 87%
    04:00 +19°C° 0 mm 0 mps 650 mmHg 87%
    05:00 +19°C° 0 mm 0 mps 650 mmHg 88%
    06:00 +22°C° 0 mm 1 mps 650 mmHg 82%
    07:00 +23°C° 0 mm 1 mps 651 mmHg 76%
    08:00 +24°C° 0 mm 1 mps 652 mmHg 70%
    09:00 +25°C° 0 mm 2 mps 652 mmHg 66%
    10:00 +26°C° 0 mm 2 mps 651 mmHg 61%
    11:00 +28°C° 0 mm 2 mps 651 mmHg 56%
    12:00 +28°C° 0.1 mm 2 mps 651 mmHg 56%
    13:00 +28°C° 0.1 mm 3 mps 650 mmHg 56%
    14:00 +29°C° 0.1 mm 3 mps 649 mmHg 56%
    15:00 +28°C° 0.1 mm 3 mps 649 mmHg 59%
    16:00 +27°C° 0.1 mm 3 mps 648 mmHg 62%
    17:00 +27°C° 0.1 mm 3 mps 648 mmHg 65%
    18:00 +26°C° 0.2 mm 2 mps 648 mmHg 70%
    19:00 +25°C° 0.2 mm 2 mps 648 mmHg 75%
    20:00 +23°C° 0.2 mm 1 mps 649 mmHg 80%
    21:00 +23°C° 0 mm 1 mps 649 mmHg 81%
    22:00 +23°C° 0 mm 1 mps 649 mmHg 83%
    23:00 +20°C° 0 mm 0 mps 649 mmHg 84%

    22 October, Monday

    Time Temperature Precipitation Wind Pressure Humidity
    00:00 +20°C° 0 mm 0 mps 649 mmHg 84%
    01:00 +22°C° 0 mm 1 mps 648 mmHg 85%
    02:00 +22°C° 0 mm 1 mps 648 mmHg 85%
    03:00 +21°C° 0.1 mm 1 mps 648 mmHg 85%
    04:00 +21°C° 0.1 mm 1 mps 648 mmHg 86%
    05:00 +21°C° 0.1 mm 1 mps 648 mmHg 86%
    06:00 +22°C° 0 mm 1 mps 649 mmHg 81%
    07:00 +23°C° 0 mm 1 mps 649 mmHg 76%
    08:00 +24°C° 0 mm 1 mps 650 mmHg 70%
    09:00 +26°C° 0 mm 2 mps 650 mmHg 65%
    10:00 +27°C° 0 mm 2 mps 650 mmHg 60%
    11:00 +28°C° 0 mm 2 mps 650 mmHg 55%
    12:00 +29°C° 0.2 mm 2 mps 649 mmHg 56%
    13:00 +29°C° 0.2 mm 2 mps 648 mmHg 57%
    14:00 +29°C° 0.2 mm 2 mps 648 mmHg 58%
    15:00 +29°C° 0.3 mm 2 mps 647 mmHg 61%
    16:00 +28°C° 0.3 mm 2 mps 647 mmHg 64%
    17:00 +27°C° 0.3 mm 3 mps 647 mmHg 66%
    18:00 +26°C° 1.1 mm 2 mps 647 mmHg 71%
    19:00 +25°C° 1.1 mm 2 mps 648 mmHg 76%
    20:00 +24°C° 1.1 mm 2 mps 648 mmHg 82%
    21:00 +23°C° 0.2 mm 2 mps 649 mmHg 82%
    22:00 +23°C° 0.2 mm 2 mps 649 mmHg 83%
    23:00 +21°C° 0.2 mm 2 mps 649 mmHg 83%

    23 October, Tuesday

    Time Temperature Precipitation Wind Pressure Humidity
    00:00 +21°C° 0.1 mm 2 mps 649 mmHg 84%
    01:00 +21°C° 0.1 mm 2 mps 649 mmHg 85%
    02:00 +21°C° 0.1 mm 2 mps 649 mmHg 86%
    03:00 +20°C° 0.1 mm 2 mps 649 mmHg 87%
    04:00 +20°C° 0.1 mm 2 mps 649 mmHg 88%
    05:00 +20°C° 0.1 mm 2 mps 650 mmHg 88%
    06:00 +20°C° 0.1 mm 2 mps 650 mmHg 85%
    07:00 +20°C° 0.1 mm 3 mps 651 mmHg 83%
    08:00 +20°C° 0.1 mm 3 mps 652 mmHg 80%
    09:00 +20°C° 0.1 mm 3 mps 651 mmHg 78%
    10:00 +21°C° 0.1 mm 3 mps 651 mmHg 77%
    11:00 +21°C° 0.1 mm 3 mps 651 mmHg 76%
    12:00 +21°C° 0.1 mm 3 mps 651 mmHg 76%
    13:00 +21°C° 0.1 mm 3 mps 650 mmHg 75%
    14:00 +21°C° 0.1 mm 3 mps 649 mmHg 75%
    15:00 +21°C° 0 mm 3 mps 649 mmHg 75%
    16:00 +21°C° 0 mm 3 mps 649 mmHg 75%
    17:00 +21°C° 0 mm 3 mps 649 mmHg 75%
    18:00 +20°C° 0.1 mm 2 mps 650 mmHg 78%
    19:00 +19°C° 0.1 mm 2 mps 651 mmHg 81%
    20:00 +19°C° 0.1 mm 2 mps 651 mmHg 84%
    21:00 +19°C° 0 mm 2 mps 651 mmHg 85%
    22:00 +19°C° 0 mm 1 mps 651 mmHg 86%
    23:00 +19°C° 0 mm 1 mps 652 mmHg 87%

    24 October, Wednesday

    Time Temperature Precipitation Wind Pressure Humidity
    00:00 +19°C° 0 mm 1 mps 651 mmHg 87%
    01:00 +19°C° 0 mm 1 mps 651 mmHg 88%
    02:00 +18°C° 0 mm 1 mps 650 mmHg 88%
    03:00 +18°C° 0 mm 1 mps 650 mmHg 88%
    04:00 +18°C° 0 mm 1 mps 650 mmHg 88%
    05:00 +18°C° 0 mm 1 mps 650 mmHg 88%
    06:00 +19°C° 0 mm 1 mps 651 mmHg 84%
    07:00 +20°C° 0 mm 1 mps 652 mmHg 80%
    08:00 +19°C° 0 mm 2 mps 652 mmHg 75%
    09:00 +21°C° 0 mm 2 mps 652 mmHg 70%
    10:00 +23°C° 0 mm 2 mps 652 mmHg 65%
    11:00 +24°C° 0 mm 3 mps 652 mmHg 59%
    12:00 +24°C° 0 mm 3 mps 651 mmHg 60%
    13:00 +24°C° 0 mm 3 mps 650 mmHg 61%
    14:00 +24°C° 0 mm 2 mps 649 mmHg 61%
    15:00 +24°C° 0.1 mm 2 mps 649 mmHg 65%
    16:00 +23°C° 0.1 mm 2 mps 649 mmHg 68%
    17:00 +21°C° 0.1 mm 2 mps 648 mmHg 71%
    18:00 +22°C° 0 mm 1 mps 649 mmHg 75%
    19:00 +21°C° 0 mm 1 mps 649 mmHg 78%
    20:00 +20°C° 0 mm 1 mps 649 mmHg 82%
    21:00 +20°C° 0 mm 1 mps 650 mmHg 83%
    22:00 +19°C° 0 mm 1 mps 650 mmHg 83%
    23:00 +19°C° 0 mm 1 mps 650 mmHg 84%
    Show more